GONETS D1 1

导读

GONETS D1-1卫星由独联体(CIS)发射,于1996年2月19日8时送入太空,属于GONETS“信使”低轨卫星通信系统,该系统主要为俄罗斯及相关区域提供移动通信服务。 作为早期组网卫星,它承担着数据传输、应急通信等基础任务,是苏联解体后独联体空间通信网络构建的重要组成部分,推动了区域卫星通信体系的延续与发展。

Basic Information
目录编号:
23787
目录名称:
GONETS D1 1
国际标识:
1996-009A
轨道中心:
EARTH
卫星名称:
GONETS D1 1
卫星全名:
--
卫星状态:
在轨 (已飞行11073 天)
发射日期:
1996-02-19 UTC
国别 :
俄罗斯(独联体) (CIS)
星等 :
--
Orbit Information
数据来源 国际轨道数据 AOE轨道数据
星历时间 2026-06-15T00:03:02+0800
7小时前
查看轨道信息
2026-06-13T06:00:00+0800
2天前
查看轨道信息
半长轴 7784.174km 7784.172km
偏心率 0.0011833 0.001174
轨道倾角 82.577° 82.578°
近地点辐角 52.833° 57.644°
升交点赤经 300.508° 301.630°
平近点角 319.018° 264.709°
近地点 1396.825km 1396.896km
远地点 1415.249km 1415.174km
周期 113.914分钟 113.914分钟
每日圈数 12.641074 12.64108
Detailed Information
使用方式:
暂无
2D Orbit Map
3D Orbit Map
Orbit Altitude Analysis Chart
Orbit Inclination Analysis Chart
Orbit Comprehensive Analysis Chart
View Comprehensive Chart